Location: Roland
(31.1349°N, 85.4372°W)
Time: 22:34:54
(UTC+00:00)

Tiros 1 - Pass Details

Date: 18 April 2021
Orbit: 630 x 664 km, 48.4° (Epoch: 05 May)

Event Time Altitude Azimuth Distance (km) Brightness Sun altitude
Rises 20:34:11 0° 320° (NW) 2,915 10.7 45.3°
Reaches altitude 10° 20:36:59 10° 336° (NNW) 2,006 9.9 44.7°
Maximum altitude 20:40:32 22° 27° (NNE) 1,396 8.8 44.0°
Drops below altitude 10° 20:44:06 10° 78° (ENE) 2,007 9.3 43.3°
Sets 20:46:53 0° 94° (E) 2,918 10.1 42.7°
